Registrering Status Plassering
LN-FAW Operativ Ski - ENSI 

Søk
Kontakt informasjon

Follo flyklubb.
Postboks 226, N-1401 Ski
Epost: post@follo-flyklubb.no

Tel: 47 25 54 90
Du er her: Hovedside

Velkommen til Follo flyklubb

 

Follo flyklubb er en flyklubb med primærbase på Ski flyplass, og sekundærbase (vinterbase) på Rakkestad flyplass. Disse websidene er ment som en informasjonskanal til flyklubbens medlemmer, og andre som måtte være interessert i Follo flyklubbs virksomhet. Har du kommentarer eller bidrag du ønsker å dele med flyklubben, send oss en melding her.

Har noen av flyklubbens medlemmer forslag til turer, aktiviteter eller kurs- og infokvelder dere ønsker at vi deltar på eller avholder, så gi beskjed til styret via epost.

 

Før flyturen: Ta en sjekk på datoer i sertifikatene dine. Husk at det er forskjell på gyldighetsdato for PPL-sertifikatet og klasserettighet, som f.eks. SEP. Her er noen nyttige spørsmål, og litt om rettigheter her.

ENGM 190850Z 20013KT 170V230 9999 FEW022 SCT090 BKN190 16/11 Q1004 NOSIG
ENTO 190850Z 21013KT 9999 BKN010 17/15 Q1006
ENRY 190850Z 20013KT 9000 BKN008 17/14 Q1006 TEMPO BKN012 FEW020CB
ENSN 090850Z 20010G22KT 150V240 CAVOK 07/03 Q1000
ENCN 190850Z 22011KT 190V250 9999 BKN014 17/15 Q1007
ENZV 190850Z 19014KT 9999 FEW013 SCT017 16/14 Q1004 NOSIG
ENFL 190850Z 18028G38KT 9999 VCSH FEW012 SCT025TCU SCT030 15/11 Q0996
ENFG 220850Z 19007KT CAVOK 06/M03 Q1014
ENNO 190850Z 17006KT 090V180 9999 VCSH SCT035 18/12 Q1004 WIND MEASURED AT THR30
 

Leie av LN-FAW

Follo flyklubbs medlemmer har anledning til å leie LN-FAW, booking skjer via MyWebLog. Husk å loggføre turen etter turen.